Вернуться в каталог

METEOR 2-11 DEB

АктивенPO
NORAD 43309·DEBRIS·🇷🇺 Russia

Запущен Jul 5, 1984 с Plesetsk Cosmodrome

Loading…

Ближайшие Пролёты (ближайшие 24 часа)

TLE

СвежийSource: Space-Track

Эпоха: Sep 14, 2026, 10:31 UTC

1 43309U 84072U   26257.43820571  .00000123  00000-0  73080-4 0  9990
2 43309  82.5266 296.1272 0033406  87.2645 273.2347 13.99688029575782

Отслеживайте METEOR 2-11 DEB в реальном времени с AllMySat

Download on the App Store